Rbgn^[z[y[W
メイン
   新天体発見情報
     Comet C/2023 H3 (PANSTARRS)
投稿するにはまず登録を

スレッド表示 | 新しいものから 前のトピック | 次のトピック | 下へ
投稿者 スレッド
佐藤裕久
投稿日時: 2023-5-31 1:17
モデレータ
登録日: 2005-6-12
居住地: 日本
投稿: 2530
オンライン
Comet C/2023 H3 (PANSTARRS)

R. Weryk (西オンタリオ大学,物理および天文学科)の通報によると、4月28日、Haleakalaにある
Pan-STARRS2の1.8-m Ritchey-Chretien 反射望遠鏡で得た画像から彗星を発見した。
4枚の45-秒w-バンドサーベイ画像は、1".3のシーイングで集光した頭部は1".9(半値全幅:FWHM)
で、北西方向に短い尾を示唆する点拡散非対称である。
Werykは、5月12.4日UT、HaleakalaのPan-STARRS1の1.8-m Ritchey-Chretien 反射望遠鏡で得た
4枚の45-秒w-バンドサーベイ画像で、1".3のシーイングで集光した頭部は2".0(FWHM)で、p.a. 315°
に再び点拡散関数(PSF)は非対称であった。
Y. Ramanjooloo (ハワイ大学)によると、5月28.34-28.35日、Maunakeaにあるハワイ大学 2.2-m 反射
望遠鏡で得た3枚の240-秒フィルターなしのフォローアップ露出で、2".1のシーイングで3".0(FWHM)
のわずかにぼやけた拡散したコマが見えるが、尾はなかった。

彗星機能は次のとおり、

OC   Date        Reporter           Coma    Tail    PA          Exposures
X07  2023-04-29  H. Sato            7"                            9x120s
F51  2023-05-12  R. Weryk           0".7                          4x45s
T12  2023-05-28  Y. Ramanjooloo     3"                            3x240s

発見位置は次のとおり、

     2023 UT             R.A. (2000) Decl.       Mag.
     Apr. 28.39582   14 26 19.97   -13 34 06.0   20.8
          28.40795   14 26 19.64   -13 34 04.8   21.1
          28.42011   14 26 19.35   -13 34 03.4   20.8
          28.43227   14 26 19.05   -13 34 02.2   21.1

MPCの楕円軌道要素、位置推算表は次のとおり、

Orbital elements:
    C/2023 H3 (PANSTARRS)                                                       
Epoch 2023 Feb. 25.0 TT = JDT 2460000.5                                         
T 2024 Feb. 18.86591 TT                                 Rudenko                 
q   5.2324800            (2000.0)            P               Q                  
n   0.01955643     Peri.  193.31154     -0.36800511     +0.92914153             
a  13.6440407      Node    55.10679     -0.84907080     -0.32018631             
e   0.6165007      Incl.    2.48846     -0.37901321     -0.18486952             
P  50.4                                                                         
From 47 observations 2023 Mar. 16-May 28, mean residual 0".2.                   
                                                                                
Ephemeris:
Date    TT    R. A. (2000) Decl.     Delta      r    Elong.  Phase   m1
2023 04 30    14 25 41.1 -13 31 22   4.5037  5.5106   179.0     0.2  20.7
...
2023 05 15    14 19 47.6 -13 06 55   4.5079  5.4841   163.4     3.0  20.7
...
2023 05 23    14 16 59.5 -12 55 37   4.5362  5.4704   155.0     4.5  20.7
...
2023 05 29    14 15 09.7 -12 48 32   4.5684  5.4603   148.8     5.5  20.7
2023 05 30    14 14 53.0 -12 47 30   4.5747  5.4587   147.7     5.7  20.7
2023 05 31    14 14 36.8 -12 46 30   4.5812  5.4570   146.7     5.9  20.7
...
2023 06 06    14 13 10.5 -12 41 25   4.6249  5.4472   140.6     6.8  20.7
...
2023 06 14    14 11 47.0 -12 37 22   4.6952  5.4345   132.6     7.9  20.7
...
2023 06 29    14 10 59.9 -12 39 09   4.8575  5.4116   118.1     9.5  20.8

(MPEC 2023-K195、CBET 5267)

スレッド表示 | 新しいものから 前のトピック | 次のトピック | トップ

投稿するにはまず登録を
 
© 1999 Tsutomu Seki.